Find OneWeb SL0046

NORAD ID: 45447 Int'l Des: 2020-020 Owner: ONEWEB Country: UK Constellation: oneweb operational
LEOCIRCULARPOLARONEWEB_TYPE

Current View

Loading 3D Globe...

About OneWeb SL0046

Description loading...

Upcoming Passes

Passes for default location (London). Set your location on the main map for personalized predictions.

Altitude History

Loading altitude history...

Two-Line Element Set

1 45447U 20020Z 26151.13081286 -.00000471 00000-0 -13656-2 0 9999
2 45447 87.8909 24.4633 0002072 83.7007 276.4356 13.11416712300378
Epoch: May 31, 2026 • Age: 9 hours

Current Status

Altitude 1219.3 km
Velocity 7.25 km/s
Sub-Earth Point 17.31°N, 49.72°W
Launch Date Mar 21, 2020
Age 6.1 years
Type internet

Technical Details

Classification Payload
Mass 148.00 kg
Dry Mass 140.00 kg
Total Mass 148.00 kg
Length 1.30 m
Diameter 1.00 m
Span 5.00 m
Shape Trapezoid+2 pan
Manufacturer ONEWUS
Bus Type ARROW
Phase Status In Orbit
Owner/State ONEWEB/UK

Most Searched